Find Starlink 3374

NORAD ID: 51112 Int'l Des: 2022-005 Owner: SPXS Country: US Constellation: starlink operational
LEOCIRCULAR

当前视图

正在加载3D地球...

About Starlink 3374

Starlink 3374 (NORAD 51112) is a starlink constellation satellite (v1.5) launched Jan 19, 2022 by SPXS of US. It operates in LEO, CIRCULAR orbit with a mass of 297.00 kg.

即将过境

Passes for default location (London). Set your location on the main map for personalized predictions.

高度历史

Loading altitude history...

两行轨道根数

1 51112U 22005J 26264.83870289 .00000186 00000-0 16636-4 0 9995
2 51112 53.1598 119.5255 0001244 94.0552 266.0593 15.34385720258618
Epoch: Sep 21, 2026 • Age: 7 hours

当前状态

高度 467.6 km
远地点 / 近地点 N/A
速度 7.64 km/s
星下点 49.27°N, 165.5°W
发射日期 Jan 19, 2022
运行时间 4.6 years
类型 internet

技术详情

分类 Payload
质量 297.00 kg
干质量 275.00 kg
长度 0.20 m
跨度 9.00 m
形状 ? Box + pan
制造商 SPXS
平台类型 Starlink
阶段状态 In Orbit
所有者/国家 SPXS/US

Most Searched